Location: Biharia
(46.4333°N, 22.8000°E)
Time: 00:58:26
(UTC+00:00)

FENGYUN 1C DEB - Pass Details

Date: 15 August 2022
Orbit: 796 x 915 km, 98.9° (Epoch: 28 September)

Event Time Altitude Azimuth Distance (km) Brightness Sun altitude
Rises 00:07:11 0° 9° (N) 3,446 ? -25.9°
Reaches altitude 10° 00:09:41 10° 3° (N) 2,486 ? -25.7°
Maximum altitude 00:14:51 43° 294° (WNW) 1,154 ? -25.3°
Enters shadow 00:15:24 42° 277° (W) 1,175 ? -25.3°
